Terminal Aerodrome Forecast
Issued by NWS

Home | Current Version | Previous Version | Text Only | Print | Product List | Glossary On
Versions: 1 2 3 4 5 6 7 8 9 10 11 12 13 14 15 16 17 18 19
000
FTUS41 KOKX 210200 AAA
TAFHPN
TAF AMD
KHPN 210238Z 2103/2124 VRB03KT P6SM SCT040 SCT120
     FM210700 VRB03KT P6SM BKN040
     FM211400 12004KT P6SM BKN035
      AMD NOT SKED=

USA.gov is the U.S. government's official web portal to all federal, state and local government web resources and services.